KG4AGD Weather Reports


time (UTC)temp
F
wind
direction
speed
knots
gust
knots
rain 1hr
in
rain 24hr
in
rain mn
in
humidity
%
barometer
mb
20260510233954 80 33 0.0 0.0 0.00 0.00 0.00 54 1015.5
20260510233452 81 316 0.9 2.6 0.00 0.00 0.00 49 1015.5
20260510232950 81 327 3.5 4.3 0.00 0.00 0.00 46 1015.2
20260510232448 82 329 0.9 0.9 0.00 0.00 0.00 49 1015.2
20260510231946 82 341 1.7 1.7 0.00 0.00 0.00 48 1015.2
20260510231444 82 287 3.5 3.5 0.00 0.00 0.00 45 1015.2
20260510230942 82 269 1.7 2.6 0.00 0.00 0.00 45 1015.2
20260510230440 83 305 5.2 5.2 0.00 0.00 0.00 44 1015.2
20260510225938 82 305 2.6 5.2 0.00 0.00 0.00 46 1015.2
20260510225435 82 278 4.3 5.2 0.00 0.00 0.00 44 1015.2
20260510224933 83 280 5.2 8.7 0.00 0.00 0.00 45 1015.2
20260510224431 83 276 5.2 5.2 0.00 0.00 0.00 45 1015.2
20260510223929 83 265 5.2 6.1 0.00 0.00 0.00 45 1015.2
20260510223427 84 296 3.5 3.5 0.00 0.00 0.00 46 1014.9
20260510222925 84 272 1.7 3.5 0.00 0.00 0.00 43 1015.2
20260510222422 85 295 3.5 3.5 0.00 0.00 0.00 44 1014.9
20260510221920 84 343 3.5 5.2 0.00 0.00 0.00 45 1014.9
20260510221418 85 276 3.5 3.5 0.00 0.00 0.00 46 1014.9
20260510220916 85 307 2.6 3.5 0.00 0.00 0.00 42 1014.9
20260510220414 84 286 2.6 5.2 0.00 0.00 0.00 43 1014.9
20260510215912 84 277 6.1 8.7 0.00 0.00 0.00 44 1014.9
20260510215410 85 280 7.8 8.7 0.00 0.00 0.00 44 1014.9
20260510214908 85 316 4.3 7.0 0.00 0.00 0.00 47 1014.9
20260510214405 85 209 5.2 6.1 0.00 0.00 0.00 45 1014.9
20260510213903 85 243 1.7 4.3 0.00 0.00 0.00 44 1014.9
20260510213401 85 232 1.7 5.2 0.00 0.00 0.00 46 1014.9
20260510212859 85 345 7.8 7.8 0.00 0.00 0.00 46 1014.9
20260510212357 85 333 2.6 4.3 0.00 0.00 0.00 48 1014.9
20260510211855 85 311 1.7 4.3 0.00 0.00 0.00 43 1014.9
20260510211353 86 302 1.7 2.6 0.00 0.00 0.00 46 1014.9
20260510210851 85 233 4.3 7.0 0.00 0.00 0.00 44 1014.9
20260510210349 85 177 4.3 5.2 0.00 0.00 0.00 45 1014.9
20260510205847 85 245 3.5 5.2 0.00 0.00 0.00 46 1014.9
20260510205344 85 270 7.0 7.0 0.00 0.00 0.00 44 1014.9
20260510204842 86 308 6.1 8.7 0.00 0.00 0.00 44 1014.9
20260510204340 85 281 7.0 8.7 0.00 0.00 0.00 46 1014.9
20260510203838 86 244 2.6 3.5 0.00 0.00 0.00 43 1014.9
20260510203336 86 217 2.6 2.6 0.00 0.00 0.00 41 1014.9
20260510202834 86 227 2.6 5.2 0.00 0.00 0.00 43 1014.9
20260510202331 86 310 4.3 7.8 0.00 0.00 0.00 42 1014.9
20260510201829 86 283 5.2 7.8 0.00 0.00 0.00 44 1014.9
20260510201326 86 278 2.6 3.5 0.00 0.00 0.00 42 1014.9
20260510200824 85 323 1.7 3.5 0.00 0.00 0.00 42 1014.9
20260510200322 86 28 3.5 4.3 0.00 0.00 0.00 40 1014.9
20260510195820 86 238 4.3 7.0 0.00 0.00 0.00 42 1015.2
20260510195318 87 234 3.5 6.1 0.00 0.00 0.00 43 1014.9
20260510194815 87 275 7.8 8.7 0.00 0.00 0.00 45 1014.9
20260510194313 85 254 0.0 0.9 0.00 0.00 0.00 47 1015.2
20260510193811 86 283 5.2 6.1 0.00 0.00 0.00 44 1015.2
20260510193308 86 359 3.5 6.1 0.00 0.00 0.00 44 1015.2
20260510192805 87 320 3.5 5.2 0.00 0.00 0.00 46 1015.2
20260510192306 86 20 1.7 1.7 0.00 0.00 0.00 49 1015.2
20260510191800 85 250 1.7 1.7 0.00 0.00 0.00 49 1015.2
20260510191258 86 221 2.6 4.3 0.00 0.00 0.00 48 1015.5
20260510190756 85 267 2.6 2.6 0.00 0.00 0.00 50 1015.5
20260510190254 84 277 5.2 5.2 0.00 0.00 0.00 51 1015.5
20260510185751 83 250 2.6 2.6 0.00 0.00 0.00 51 1015.5
20260510185249 85 325 2.6 2.6 0.00 0.00 0.00 50 1015.5
20260510184745 86 107 2.6 2.6 0.00 0.00 0.00 51 1015.5
20260510184243 86 236 5.2 5.2 0.00 0.00 0.00 50 1015.5
20260510183739 86 265 3.5 3.5 0.00 0.00 0.00 51 1015.9
20260510183237 84 177 0.0 0.0 0.00 0.00 0.00 50 1015.9
20260510182735 85 225 4.3 4.3 0.00 0.00 0.00 52 1015.5
20260510182232 85 21 0.9 7.8 0.00 0.00 0.00 50 1015.9
20260510181731 84 347 3.5 7.8 0.00 0.00 0.00 51 1015.9
20260510181228 86 282 5.2 6.1 0.00 0.00 0.00 54 1015.9
20260510180726 85 211 3.5 6.1 0.00 0.00 0.00 50 1015.9
20260510180224 85 244 5.2 6.1 0.00 0.00 0.00 54 1015.9
20260510175721 86 198 2.6 7.0 0.00 0.00 0.00 55 1015.9
20260510175220 84 121 0.9 5.2 0.00 0.00 0.00 51 1015.9
20260510174717 85 250 1.7 7.0 0.00 0.00 0.00 51 1015.9
20260510174215 85 16 2.6 5.2 0.00 0.00 0.00 52 1015.9
20260510173713 85 284 5.2 7.0 0.00 0.00 0.00 51 1015.9
20260510173211 86 329 3.5 5.2 0.00 0.00 0.00 51 1015.9
20260510172708 85 194 1.7 7.0 0.00 0.00 0.00 59 1015.9
20260510172206 85 294 2.6 5.2 0.00 0.00 0.00 54 1016.2
20260510171704 82 281 1.7 6.1 0.00 0.00 0.00 53 1016.2
20260510171202 82 280 2.6 4.3 0.00 0.00 0.00 57 1016.2
20260510170700 83 67 3.5 5.2 0.00 0.00 0.00 52 1016.2
20260510170157 86 352 2.6 6.1 0.00 0.00 0.00 52 1016.2
20260510165655 85 330 5.2 8.7 0.00 0.00 0.00 59 1016.2
20260510165153 84 252 0.0 1.7 0.00 0.00 0.00 56 1016.2
20260510164651 82 119 2.6 3.5 0.00 0.00 0.00 59 1016.2
20260510164149 81 82 4.3 4.3 0.00 0.00 0.00 59 1016.2
20260510163647 80 350 0.0 2.6 0.00 0.00 0.00 59 1016.2
20260510163145 82 258 4.3 4.3 0.00 0.00 0.00 59 1016.2
20260510162643 81 345 3.5 6.1 0.00 0.00 0.00 60 1016.2
20260510162140 82 356 2.6 2.6 0.00 0.00 0.00 57 1016.5
20260510161638 81 31 0.0 3.5 0.00 0.00 0.00 58 1016.2
20260510161135 83 180 2.6 3.5 0.00 0.00 0.00 59 1016.5
20260510160633 83 180 1.7 4.3 0.00 0.00 0.00 60 1016.5
20260510160131 82 187 1.7 3.5 0.00 0.00 0.00 64 1016.5
20260510155629 82 212 4.3 5.2 0.00 0.00 0.00 62 1016.5
20260510155126 82 354 0.9 2.6 0.00 0.00 0.00 60 1016.5
20260510154624 81 263 2.6 5.2 0.00 0.00 0.00 61 1016.5
20260510154121 81 254 3.5 5.2 0.00 0.00 0.00 59 1016.5
20260510153619 81 326 3.5 5.2 0.00 0.00 0.00 61 1016.5
20260510153117 81 30 1.7 3.5 0.00 0.00 0.00 64 1016.5
20260510152615 80 99 3.5 3.5 0.00 0.00 0.00 64 1016.5
20260510152113 79 21 0.0 4.3 0.00 0.00 0.00 65 1016.5
20260510151611 79 99 0.9 5.2 0.00 0.00 0.00 64 1016.5
20260510151108 79 140 1.7 5.2 0.00 0.00 0.00 65 1016.5
20260510150606 79 23 1.7 3.5 0.00 0.00 0.00 67 1016.5
20260510150104 79 285 2.6 3.5 0.00 0.00 0.00 67 1016.5
20260510145601 79 185 2.6 3.5 0.00 0.00 0.00 72 1016.5
20260510145059 79 229 0.9 3.5 0.00 0.00 0.00 67 1016.5
20260510144556 78 113 0.0 2.6 0.00 0.00 0.00 69 1016.5
20260510144054 78 227 2.6 4.3 0.00 0.00 0.00 69 1016.5
20260510143552 77 242 0.9 6.1 0.00 0.00 0.00 72 1016.5
20260510143050 78 331 4.3 6.1 0.00 0.00 0.00 72 1016.5
20260510142547 77 231 0.9 2.6 0.00 0.00 0.00 75 1016.5
20260510142045 77 296 3.5 4.3 0.00 0.00 0.00 75 1016.5
20260510141543 77 292 4.3 5.2 0.00 0.00 0.00 78 1016.5
20260510141041 76 249 1.7 7.0 0.00 0.00 0.00 74 1016.5
20260510140539 76 290 4.3 6.1 0.00 0.00 0.00 77 1016.5
20260510140037 75 7 2.6 6.1 0.00 0.00 0.00 77 1016.5
20260510135535 75 181 1.7 5.2 0.00 0.00 0.00 77 1016.5
20260510135033 75 295 5.2 6.1 0.00 0.00 0.00 79 1016.5
20260510134531 75 328 5.2 5.2 0.00 0.00 0.00 83 1016.5
20260510134028 74 306 2.6 5.2 0.00 0.00 0.00 83 1016.5
20260510133526 73 304 2.6 4.3 0.00 0.00 0.00 82 1016.2
20260510133024 73 236 4.3 5.2 0.00 0.00 0.00 85 1016.2
20260510132522 73 323 1.7 5.2 0.00 0.00 0.00 85 1016.2
20260510132020 72 231 3.5 3.5 0.00 0.00 0.00 84 1016.2
20260510131518 72 289 5.2 6.1 0.00 0.00 0.00 86 1016.5
20260510131016 71 281 2.6 4.3 0.00 0.00 0.00 86 1016.2
20260510130513 71 232 1.7 4.3 0.00 0.00 0.00 87 1016.2
20260510130011 71 209 1.7 3.5 0.00 0.00 0.00 90 1016.2
20260510125509 70 261 1.7 6.1 0.00 0.00 0.00 88 1016.2
20260510125007 69 280 2.6 5.2 0.00 0.00 0.00 89 1016.2
20260510124504 69 229 3.5 3.5 0.00 0.00 0.00 91 1016.2
20260510123958 69 234 3.5 4.3 0.00 0.00 0.00 91 1016.2
20260510123456 68 234 2.6 4.3 0.00 0.00 0.00 91 1016.2
20260510122954 68 269 3.5 4.3 0.00 0.00 0.00 93 1016.2
20260510121850 67 292 1.7 2.6 0.00 0.00 0.00 94 1016.2
20260510121348 66 200 0.0 2.6 0.00 0.00 0.00 97 1016.2
20260510120846 66 184 0.0 1.7 0.00 0.00 0.00 98 1015.9
20260510120243 65 266 0.0 0.0 0.00 0.00 0.00 99 1015.9
20260510115741 64 248 0.0 0.0 0.00 0.00 0.00 100 1015.9
20260510115239 63 191 0.0 0.0 0.00 0.00 0.00 100 1015.9
20260510114736 63 184 0.0 0.0 0.00 0.00 0.00 100 1015.9
20260510113632 63 296 0.0 2.6 0.00 0.00 0.00 100 1015.5
20260510113130 63 277 0.0 2.6 0.00 0.00 0.00 100 1015.5
20260510111926 62 204 0.0 0.0 0.00 0.00 0.00 100 1015.5
20260510111423 62 167 0.0 0.0 0.00 0.00 0.00 100 1015.2
20260510110921 61 172 0.0 0.0 0.00 0.00 0.00 100 1015.2
20260510105817 61 341 0.0 0.0 0.00 0.00 0.00 100 1014.9
20260510104712 61 142 0.0 0.0 0.00 0.00 0.00 100 1014.9
20260510104210 61 163 0.0 0.0 0.00 0.00 0.00 100 1014.9
20260510103708 61 213 0.0 0.0 0.00 0.00 0.00 100 1014.9
20260510103206 61 266 0.0 0.0 0.00 0.00 0.00 100 1014.9
20260510102704 61 139 0.0 0.9 0.00 0.00 0.00 100 1014.9
20260510102101 61 318 0.0 0.0 0.00 0.00 0.00 100 1014.5
20260510101559 61 149 0.0 0.0 0.00 0.00 0.00 100 1014.5
20260510101056 61 172 0.0 0.0 0.00 0.00 0.00 100 1014.5
20260510100555 61 218 0.0 0.0 0.00 0.00 0.00 100 1014.5
20260510100052 61 114 0.0 0.0 0.00 0.00 0.00 100 1014.2
20260510095550 61 141 0.0 0.0 0.00 0.00 0.00 100 1014.2
20260510094446 61 278 0.0 0.0 0.00 0.00 0.00 100 1014.2
20260510093843 61 207 0.0 0.0 0.00 0.00 0.00 100 1014.2
20260510093341 61 171 0.0 0.0 0.00 0.00 0.00 100 1014.2
20260510092839 61 168 0.0 0.0 0.00 0.00 0.00 100 1013.8
20260510092337 61 207 0.9 0.9 0.00 0.00 0.00 100 1014.2
20260510091735 61 166 0.0 0.0 0.00 0.00 0.00 100 1013.8
20260510091232 61 198 0.0 0.0 0.00 0.00 0.00 100 1013.8
20260510090730 61 294 0.0 0.0 0.00 0.00 0.00 100 1013.8
20260510090228 61 296 0.0 0.0 0.00 0.00 0.00 100 1013.8
20260510085726 61 243 0.0 0.0 0.00 0.00 0.00 100 1013.8
20260510085224 61 257 0.0 0.0 0.00 0.00 0.00 100 1013.8
20260510084621 61 174 0.0 0.0 0.00 0.00 0.00 100 1013.8
20260510084119 61 187 0.0 0.0 0.00 0.00 0.00 100 1013.5
20260510083518 61 172 0.0 0.0 0.00 0.00 0.00 100 1013.5
20260510083015 61 169 0.0 0.0 0.00 0.00 0.00 100 1013.5
20260510082513 61 184 0.0 0.0 0.00 0.00 0.00 100 1013.5
20260510082010 61 159 0.0 0.9 0.00 0.00 0.00 100 1013.5
20260510081408 61 171 0.9 1.7 0.00 0.00 0.00 100 1013.5
20260510080906 61 163 0.0 1.7 0.00 0.00 0.00 100 1013.5
20260510080404 61 156 0.0 0.9 0.00 0.00 0.00 100 1013.5
20260510075901 61 161 0.0 0.0 0.00 0.00 0.00 100 1013.5
20260510074755 61 158 0.0 0.0 0.00 0.00 0.00 100 1013.5
20260510074253 61 158 0.0 0.0 0.00 0.00 0.00 100 1013.5
20260510073751 61 156 0.0 0.0 0.00 0.00 0.00 100 1013.5
20260510073249 60 160 0.0 0.0 0.00 0.00 0.00 100 1013.2
20260510072747 61 56 0.0 0.0 0.00 0.00 0.00 100 1013.2
20260510072244 61 124 0.0 0.0 0.00 0.00 0.00 100 1013.2
20260510071742 61 146 0.0 0.0 0.00 0.00 0.00 100 1013.2
20260510071240 61 139 0.0 0.0 0.00 0.00 0.00 100 1013.2
20260510070738 61 38 0.0 0.0 0.00 0.00 0.00 100 1013.2
20260510065624 61 86 0.0 0.0 0.00 0.00 0.00 100 1013.2
20260510064505 61 352 0.0 0.0 0.00 0.00 0.00 100 1013.5
20260510063359 61 163 0.0 0.0 0.00 0.00 0.00 100 1013.2
20260510062857 61 187 0.0 0.0 0.00 0.00 0.00 100 1013.2
20260510062355 61 160 0.0 0.0 0.00 0.00 0.00 100 1013.2
20260510061853 61 155 0.0 0.0 0.00 0.00 0.00 100 1013.2
20260510061350 61 78 0.0 0.0 0.00 0.00 0.00 100 1013.2
20260510060848 61 84 0.0 0.0 0.00 0.00 0.00 100 1013.2
20260510060346 61 17 0.0 0.0 0.00 0.00 0.00 100 1013.2
20260510055843 62 64 0.0 0.0 0.00 0.00 0.00 100 1013.2
20260510055341 62 103 0.0 0.0 0.00 0.00 0.00 100 1013.5
20260510054839 62 103 0.0 0.0 0.00 0.00 0.00 99 1013.5
20260510053132 62 153 0.0 0.0 0.00 0.00 0.00 99 1013.5
20260510052630 62 166 0.0 0.0 0.00 0.00 0.00 99 1013.5
20260510052128 62 92 0.0 0.0 0.00 0.00 0.00 98 1013.5
20260510051626 63 51 0.0 0.0 0.00 0.00 0.00 97 1013.5
20260510051123 63 20 0.0 0.0 0.00 0.00 0.00 97 1013.5
20260510050621 63 2 0.0 0.0 0.00 0.00 0.00 97 1013.5
20260510050119 63 94 0.0 0.0 0.00 0.00 0.00 97 1013.8
20260510045617 63 205 0.0 0.0 0.00 0.00 0.00 95 1013.8
20260510045115 64 194 0.0 0.0 0.00 0.00 0.00 94 1013.8
20260510044613 64 287 0.0 0.0 0.00 0.00 0.00 94 1013.8
20260510043508 65 194 0.0 0.0 0.00 0.00 0.00 94 1013.8
20260510042905 65 175 0.0 0.0 0.00 0.00 0.00 94 1013.8
20260510042403 65 187 0.0 0.0 0.00 0.00 0.00 94 1013.8
20260510041901 65 210 1.7 1.7 0.00 0.00 0.00 94 1013.8
20260510041359 65 235 0.0 0.0 0.00 0.00 0.00 94 1013.8
20260510040857 65 170 0.0 0.0 0.00 0.00 0.00 94 1013.8
20260510035753 65 189 0.0 0.0 0.00 0.00 0.03 95 1013.8
20260510035251 65 196 3.5 3.5 0.00 0.00 0.03 96 1013.8
20260510034749 64 206 0.0 0.0 0.00 0.00 0.03 97 1013.5
20260510034247 64 206 1.7 1.7 0.00 0.00 0.03 98 1013.5
20260510033745 64 189 1.7 1.7 0.00 0.00 0.03 99 1013.5
20260510033243 64 199 0.0 0.0 0.00 0.00 0.03 100 1013.5
20260510032740 64 222 0.0 0.0 0.00 0.00 0.03 100 1013.5
20260510032238 63 225 0.9 0.9 0.00 0.00 0.03 100 1013.5
20260510031736 63 164 0.0 0.0 0.00 0.00 0.03 100 1013.5
20260510031233 63 170 0.0 0.9 0.00 0.00 0.03 100 1013.5
20260510030731 63 171 0.0 0.9 0.00 0.00 0.03 100 1013.5
20260510030229 63 176 0.0 0.0 0.00 0.00 0.03 100 1013.5
20260510025726 63 201 0.0 2.6 0.00 0.00 0.03 100 1013.2
20260510025224 63 185 0.0 0.0 0.00 0.00 0.03 99 1013.5
20260510024722 63 177 0.0 0.0 0.00 0.00 0.03 99 1013.2
20260510024220 63 164 0.0 0.0 0.00 0.00 0.03 99 1013.2
20260510023617 63 174 0.0 0.0 0.00 0.00 0.03 99 1013.2
20260510023115 64 192 0.0 0.0 0.00 0.00 0.03 99 1013.2
20260510021408 64 178 0.0 0.0 0.00 0.00 0.03 99 1012.8
20260510020906 64 168 0.0 0.0 0.00 0.00 0.03 99 1013.2
20260510020404 64 182 0.0 0.0 0.00 0.00 0.03 98 1012.8
20260510015902 64 138 0.0 0.0 0.00 0.00 0.03 97 1012.8
20260510015259 64 146 0.0 0.0 0.00 0.00 0.03 97 1012.8
20260510014757 64 158 0.0 0.0 0.00 0.00 0.03 97 1012.8
20260510014255 65 69 0.0 0.0 0.00 0.00 0.03 96 1012.8
20260510013753 65 60 0.0 0.0 0.00 0.00 0.03 96 1012.8
20260510012648 65 93 0.0 0.0 0.00 0.00 0.03 96 1012.5
20260510012146 66 102 0.0 0.0 0.00 0.00 0.03 95 1012.5
20260510011644 66 130 0.0 0.0 0.00 0.00 0.03 93 1012.5
20260510011142 66 131 0.0 0.0 0.00 0.00 0.03 93 1012.5
20260510010640 66 131 0.0 0.0 0.00 0.00 0.03 93 1012.1
20260510010037 67 159 0.0 0.0 0.00 0.00 0.03 92 1012.5
20260510005535 67 171 0.0 0.0 0.00 0.00 0.03 92 1012.5
20260510005033 67 168 0.0 0.0 0.00 0.00 0.03 92 1012.5
20260510004531 68 179 0.0 0.0 0.00 0.00 0.03 90 1012.1
20260510003928 68 165 0.0 0.0 0.00 0.00 0.03 90 1012.1
20260510003426 69 178 0.0 0.0 0.00 0.00 0.03 89 1012.1
20260510002924 69 169 0.0 0.0 0.00 0.00 0.03 88 1012.1
20260510002422 70 126 0.0 0.0 0.00 0.00 0.03 88 1012.1
20260510001920 70 158 0.0 0.0 0.00 0.00 0.03 85 1012.1
20260510001418 71 154 0.0 0.0 0.00 0.00 0.03 84 1012.1
20260510000915 71 190 0.0 0.0 0.00 0.00 0.03 83 1012.1
20260510000413 72 159 0.9 1.7 0.00 0.00 0.03 82 1011.8
20260509235911 72 192 0.0 1.7 0.00 0.00 0.03 81 1011.8
20260509235409 72 187 0.0 3.5 0.00 0.00 0.03 81 1011.8
20260509234906 73 233 2.6 3.5 0.00 0.00 0.03 80 1011.8